QPF
0.01 0.01 0.02 0.02 0.02 0.02 0.04 0.08 0.08 0.08 0.09 0.10 0.10 0.09 0.08 0.08 0.07 0.07 0.06 0.05 0.04 0.04 0.05 0.05 0.05 0.05 0.05 0.04 0.03 0.03 0.03 0.03 0.02 0.01 0.01 0.02 0.03 0.04 0.04 0.05 0.06 0.08 0.08
0.01 0.01 0.02 0.02 0.02 0.02 0.02 0.03 0.06 0.07 0.07 0.08 0.09 0.09 0.08 0.07 0.07 0.06 0.06 0.05 0.04 0.04 0.04 0.04 0.04 0.04 0.04 0.04 0.04 0.03 0.03 0.03 0.02 0.02 0.01 0.02 0.02 0.03 0.04 0.03 0.04 0.05 0.06
0.00 0.01 0.01 0.02 0.02 0.02 0.02 0.02 0.03 0.05 0.06 0.07 0.08 0.07 0.07 0.07 0.06 0.06 0.05 0.05 0.05 0.04 0.04 0.04 0.03 0.04 0.04 0.04 0.03 0.03 0.03 0.03 0.03 0.02 0.02 0.01 0.02 0.02 0.03 0.03 0.03 0.03 0.04
0.00 0.00 0.01 0.01 0.02 0.02 0.02 0.02 0.02 0.02 0.04 0.06 0.06 0.07 0.06 0.05 0.04 0.04 0.05 0.05 0.05 0.04 0.04 0.04 0.03 0.04 0.03 0.03 0.03 0.03 0.03 0.03 0.03 0.02 0.02 0.02 0.02 0.02 0.03 0.03 0.04 0.03 0.04
0.00 0.01 0.01 0.01 0.01 0.02 0.02 0.02 0.02 0.02 0.02 0.04 0.05 0.06 0.06 0.05 0.04 0.04 0.04 0.05 0.05 0.05 0.05 0.04 0.04 0.04 0.04 0.04 0.04 0.04 0.03 0.03 0.03 0.03 0.02 0.02 0.02 0.02 0.03 0.03 0.04 0.04 0.04
0.01 0.01 0.01 0.01 0.01 0.02 0.01 0.01 0.02 0.02 0.02 0.03 0.04 0.05 0.06 0.05 0.05 0.05 0.04 0.05 0.05 0.05 0.06 0.05 0.05 0.05 0.04 0.04 0.04 0.04 0.03 0.03 0.03 0.03 0.03 0.02 0.02 0.02 0.02 0.03 0.03 0.04 0.05
0.01 0.01 0.01 0.01 0.01 0.01 0.01 0.01 0.01 0.02 0.02 0.03 0.04 0.05 0.05 0.06 0.06 0.05 0.04 0.04 0.04 0.05 0.05 0.05 0.06 0.06 0.06 0.06 0.05 0.05 0.04 0.03 0.03 0.03 0.03 0.02 0.02 0.02 0.02 0.03 0.03 0.04 0.04
0.01 0.01 0.01 0.01 0.01 0.01 0.01 0.01 0.01 0.02 0.02 0.03 0.04 0.04 0.05 0.06 0.06 0.05 0.05 0.04 0.04 0.04 0.04 0.04 0.04 0.05 0.05 0.06 0.05 0.05 0.05 0.04 0.04 0.03 0.02 0.02 0.02 0.02 0.02 0.03 0.04 0.04 0.04
0.01 0.01 0.01 0.01 0.02 0.01 0.01 0.02 0.02 0.02 0.03 0.03 0.03 0.04 0.05 0.05 0.06 0.06 0.05 0.04 0.04 0.03 0.03 0.03 0.03 0.03 0.04 0.05 0.05 0.05 0.05 0.05 0.04 0.04 0.03 0.03 0.03 0.03 0.03 0.04 0.05 0.05 0.04
0.01 0.01 0.01 0.01 0.02 0.02 0.01 0.01 0.02 0.02 0.02 0.03 0.04 0.04 0.05 0.05 0.05 0.05 0.05 0.05 0.04 0.03 0.03 0.03 0.03 0.03 0.04 0.04 0.05 0.05 0.06 0.05 0.05 0.05 0.05 0.04 0.04 0.04 0.05 0.04 0.05 0.06 0.05
0.01 0.01 0.01 0.01 0.01 0.02 0.02 0.02 0.02 0.02 0.02 0.03 0.03 0.04 0.05 0.05 0.05 0.05 0.05 0.05 0.05 0.04 0.03 0.02 0.02 0.03 0.03 0.03 0.04 0.04 0.05 0.05 0.06 0.05 0.05 0.05 0.05 0.05 0.05 0.05 0.05 0.05 0.05
0.01 0.01 0.01 0.01 0.01 0.01 0.02 0.02 0.02 0.02 0.02 0.02 0.03 0.03 0.03 0.05 0.07 0.07 0.07 0.06 0.05 0.04 0.03 0.03 0.02 0.03 0.03 0.04 0.04 0.05 0.05 0.06 0.07 0.07 0.07 0.06 0.06 0.05 0.05 0.05 0.05 0.05 0.05
0.01 0.01 0.01 0.02 0.02 0.02 0.02 0.02 0.02 0.02 0.02 0.02 0.02 0.02 0.02 0.03 0.04 0.05 0.06 0.07 0.07 0.06 0.04 0.03 0.03 0.03 0.03 0.03 0.04 0.05 0.06 0.07 0.07 0.07 0.06 0.05 0.04 0.04 0.04 0.04 0.05 0.05 0.05
0.01 0.01 0.01 0.02 0.02 0.02 0.02 0.02 0.03 0.03 0.03 0.02 0.02 0.02 0.02 0.02 0.03 0.04 0.05 0.05 0.06 0.06 0.05 0.04 0.03 0.03 0.03 0.03 0.03 0.04 0.04 0.05 0.06 0.05 0.05 0.04 0.04 0.04 0.04 0.04 0.05 0.05 0.05
0.01 0.01 0.01 0.01 0.02 0.02 0.02 0.02 0.02 0.02 0.03 0.03 0.03 0.03 0.03 0.03 0.03 0.04 0.04 0.05 0.05 0.05 0.06 0.06 0.06 0.05 0.04 0.04 0.03 0.03 0.04 0.04 0.05 0.05 0.04 0.05 0.05 0.05 0.05 0.05 0.05 0.06 0.06
0.01 0.01 0.01 0.01 0.01 0.01 0.01 0.01 0.02 0.02 0.02 0.02 0.02 0.03 0.03 0.03 0.03 0.03 0.03 0.04 0.05 0.05 0.07 0.07 0.06 0.05 0.04 0.03 0.03 0.03 0.03 0.04 0.04 0.04 0.04 0.04 0.05 0.05 0.05 0.05 0.06 0.06 0.06
0.01 0.01 0.01 0.01 0.01 0.01 0.01 0.01 0.01 0.01 0.01 0.01 0.02 0.02 0.03 0.03 0.03 0.03 0.03 0.03 0.04 0.06 0.08 0.07 0.06 0.05 0.04 0.03 0.03 0.03 0.03 0.03 0.03 0.04 0.04 0.04 0.05 0.05 0.05 0.05 0.05 0.05 0.05
0.00 0.00 0.01 0.01 0.01 0.01 0.01 0.01 0.01 0.01 0.01 0.01 0.01 0.02 0.02 0.03 0.03 0.03 0.03 0.04 0.05 0.06 0.07 0.07 0.07 0.07 0.06 0.05 0.04 0.04 0.04 0.04 0.04 0.05 0.05 0.05 0.05 0.05 0.05 0.05 0.05 0.05 0.05
0.00 0.01 0.01 0.01 0.01 0.01 0.01 0.01 0.01 0.01 0.01 0.01 0.02 0.02 0.03 0.03 0.03 0.03 0.03 0.04 0.04 0.05 0.05 0.05 0.06 0.06 0.07 0.07 0.06 0.05 0.05 0.05 0.04 0.04 0.04 0.05 0.05 0.05 0.05 0.05 0.05 0.05 0.05
0.00 0.01 0.01 0.01 0.01 0.01 0.01 0.01 0.01 0.01 0.01 0.01 0.02 0.02 0.03 0.03 0.03 0.03 0.03 0.04 0.04 0.05 0.05 0.05 0.04 0.04 0.05 0.05 0.05 0.05 0.05 0.04 0.04 0.04 0.04 0.04 0.04 0.04 0.04 0.04 0.04 0.04 0.04
0.00 0.00 0.00 0.01 0.01 0.01 0.01 0.01 0.01 0.01 0.01 0.01 0.02 0.03 0.03 0.03 0.03 0.03 0.04 0.04 0.04 0.04 0.04 0.04 0.04 0.04 0.04 0.04 0.04 0.04 0.04 0.04 0.04 0.04 0.04 0.04 0.04 0.04 0.04 0.04 0.04 0.03 0.03
0.00 0.00 0.00 0.01 0.01 0.01 0.01 0.01 0.01 0.01 0.01 0.02 0.02 0.02 0.02 0.02 0.02 0.02 0.03 0.03 0.03 0.04 0.04 0.03 0.03 0.03 0.03 0.03 0.03 0.03 0.03 0.03 0.03 0.03 0.03 0.03 0.03 0.03 0.03 0.03 0.03 0.03 0.03
0.00 0.00 0.01 0.00 0.00 0.01 0.01 0.01 0.01 0.01 0.01 0.01 0.02 0.02 0.02 0.02 0.02 0.02 0.02 0.02 0.02 0.02 0.03 0.03 0.03 0.03 0.02 0.02 0.02 0.02 0.02 0.02 0.02 0.02 0.02 0.02 0.02 0.02 0.02 0.02 0.02 0.02 0.02
0.01 0.01 0.01 0.01 0.00 0.01 0.01 0.01 0.01 0.01 0.01 0.01 0.01 0.01 0.01 0.02 0.02 0.02 0.02 0.02 0.02 0.02 0.02 0.02 0.02 0.02 0.02 0.02 0.02 0.02 0.02 0.02 0.02 0.02 0.02 0.02 0.01 0.01 0.02 0.02 0.02 0.02 0.02
0.01 0.01 0.01 0.01 0.01 0.01 0.01 0.01 0.01 0.01 0.01 0.01 0.01 0.01 0.01 0.01 0.01 0.01 0.01 0.01 0.01 0.01 0.02 0.02 0.02 0.02 0.02 0.02 0.01 0.01 0.01 0.02 0.02 0.02 0.02 0.02 0.02 0.02 0.02 0.02 0.01 0.01 0.01
0.01 0.01 0.01 0.01 0.01 0.01 0.01 0.00 0.00 0.00 0.01 0.01 0.01 0.01 0.01 0.01 0.01 0.01 0.01 0.01 0.01 0.01 0.01 0.01 0.01 0.01 0.01 0.02 0.02 0.02 0.01 0.02 0.02 0.02 0.02 0.02 0.02 0.02 0.02 0.02 0.02 0.02 0.02
MSLP
1021.23 1020.23 1019.21 1018.14 1016.97 1015.66 1014.21 1012.63 1010.98 1009.33 1007.79 1006.46 1005.47 1004.90 1004.78 1005.12 1005.88 1007.00 1008.35 1009.84 1011.35 1012.80 1014.15 1015.38 1016.52 1017.60 1018.67 1019.77 1020.91 1022.10 1023.30 1024.47 1025.57 1026.54 1027.35 1028.00 1028.49 1028.88 1029.19 1029.48 1029.78 1030.13 1030.53
1020.55 1019.43 1018.28 1017.08 1015.77 1014.33 1012.76 1011.07 1009.34 1007.63 1006.06 1004.74 1003.79 1003.27 1003.24 1003.68 1004.54 1005.75 1007.20 1008.77 1010.35 1011.86 1013.26 1014.54 1015.72 1016.84 1017.95 1019.09 1020.28 1021.51 1022.76 1023.99 1025.13 1026.15 1027.01 1027.70 1028.24 1028.66 1029.01 1029.33 1029.67 1030.04 1030.46
1019.90 1018.65 1017.37 1016.02 1014.57 1012.99 1011.29 1009.49 1007.67 1005.91 1004.32 1003.01 1002.11 1001.66 1001.71 1002.25 1003.22 1004.53 1006.06 1007.71 1009.35 1010.92 1012.36 1013.68 1014.89 1016.04 1017.17 1018.34 1019.56 1020.82 1022.10 1023.36 1024.54 1025.59 1026.50 1027.23 1027.82 1028.29 1028.69 1029.06 1029.44 1029.85 1030.30
1019.32 1017.94 1016.53 1015.04 1013.44 1011.72 1009.89 1007.99 1006.09 1004.28 1002.68 1001.39 1000.53 1000.15 1000.29 1000.91 1001.97 1003.36 1004.97 1006.67 1008.37 1009.98 1011.46 1012.80 1014.03 1015.19 1016.33 1017.50 1018.72 1019.98 1021.27 1022.53 1023.73 1024.81 1025.75 1026.53 1027.17 1027.70 1028.16 1028.60 1029.04 1029.50 1029.99
1018.83 1017.34 1015.80 1014.17 1012.44 1010.59 1008.65 1006.66 1004.70 1002.85 1001.25 999.98 999.16 998.83 999.03 999.72 1000.83 1002.28 1003.94 1005.69 1007.42 1009.05 1010.55 1011.91 1013.15 1014.31 1015.44 1016.59 1017.79 1019.02 1020.27 1021.52 1022.70 1023.78 1024.74 1025.56 1026.26 1026.86 1027.40 1027.91 1028.43 1028.96 1029.49
1018.44 1016.84 1015.18 1013.44 1011.59 1009.64 1007.62 1005.57 1003.56 1001.70 1000.10 998.85 998.05 997.76 997.99 998.71 999.85 1001.32 1002.99 1004.76 1006.51 1008.16 1009.67 1011.04 1012.28 1013.43 1014.54 1015.66 1016.80 1017.98 1019.18 1020.37 1021.51 1022.57 1023.53 1024.37 1025.11 1025.78 1026.40 1027.01 1027.61 1028.21 1028.81
1018.12 1016.43 1014.67 1012.84 1010.91 1008.90 1006.82 1004.74 1002.73 1000.87 999.28 998.05 997.26 996.98 997.21 997.92 999.04 1000.49 1002.15 1003.90 1005.64 1007.29 1008.82 1010.19 1011.43 1012.58 1013.67 1014.74 1015.83 1016.94 1018.06 1019.18 1020.25 1021.27 1022.20 1023.05 1023.83 1024.55 1025.25 1025.93 1026.62 1027.31 1027.97
1017.83 1016.07 1014.25 1012.36 1010.39 1008.36 1006.28 1004.21 1002.22 1000.39 998.82 997.60 996.81 996.51 996.69 997.35 998.41 999.79 1001.39 1003.09 1004.81 1006.45 1007.97 1009.36 1010.62 1011.77 1012.85 1013.90 1014.94 1015.98 1017.02 1018.05 1019.05 1019.99 1020.89 1021.72 1022.51 1023.27 1024.02 1024.78 1025.54 1026.29 1027.02
1017.56 1015.75 1013.89 1011.99 1010.02 1008.01 1005.98 1003.96 1002.02 1000.24 998.71 997.49 996.69 996.33 996.44 996.99 997.94 999.21 1000.70 1002.33 1003.99 1005.60 1007.13 1008.53 1009.81 1010.99 1012.09 1013.13 1014.14 1015.14 1016.11 1017.06 1017.98 1018.86 1019.69 1020.49 1021.27 1022.05 1022.83 1023.63 1024.44 1025.25 1026.02
1017.29 1015.47 1013.61 1011.73 1009.81 1007.86 1005.91 1003.98 1002.12 1000.41 998.91 997.71 996.87 996.43 996.42 996.83 997.62 998.73 1000.08 1001.59 1003.16 1004.73 1006.24 1007.66 1008.97 1010.19 1011.33 1012.40 1013.41 1014.39 1015.32 1016.22 1017.08 1017.90 1018.68 1019.44 1020.20 1020.96 1021.75 1022.56 1023.39 1024.22 1025.01
1017.07 1015.26 1013.44 1011.61 1009.77 1007.92 1006.07 1004.25 1002.50 1000.87 999.42 998.21 997.32 996.79 996.64 996.87 997.46 998.37 999.53 1000.87 1002.32 1003.81 1005.28 1006.71 1008.05 1009.33 1010.51 1011.63 1012.68 1013.67 1014.60 1015.48 1016.31 1017.09 1017.84 1018.57 1019.29 1020.03 1020.80 1021.60 1022.42 1023.24 1024.03
1016.94 1015.16 1013.40 1011.66 1009.92 1008.19 1006.47 1004.78 1003.14 1001.59 1000.19 998.98 998.03 997.38 997.07 997.09 997.46 998.13 999.07 1000.21 1001.49 1002.86 1004.27 1005.66 1007.02 1008.33 1009.57 1010.75 1011.85 1012.89 1013.85 1014.75 1015.58 1016.36 1017.09 1017.80 1018.51 1019.22 1019.96 1020.73 1021.51 1022.30 1023.05
1016.96 1015.24 1013.56 1011.91 1010.28 1008.68 1007.10 1005.53 1004.01 1002.55 1001.19 999.98 998.97 998.21 997.72 997.54 997.66 998.07 998.75 999.66 1000.74 1001.95 1003.23 1004.56 1005.89 1007.20 1008.47 1009.70 1010.85 1011.95 1012.97 1013.91 1014.78 1015.58 1016.34 1017.05 1017.75 1018.45 1019.16 1019.88 1020.62 1021.35 1022.05
1017.17 1015.53 1013.93 1012.38 1010.87 1009.40 1007.94 1006.50 1005.09 1003.71 1002.40 1001.19 1000.13 999.25 998.61 998.22 998.09 998.24 998.65 999.30 1000.14 1001.14 1002.26 1003.46 1004.70 1005.97 1007.23 1008.46 1009.66 1010.80 1011.87 1012.87 1013.80 1014.65 1015.45 1016.19 1016.91 1017.60 1018.29 1018.98 1019.66 1020.33 1020.97
1017.57 1016.02 1014.52 1013.07 1011.67 1010.31 1008.98 1007.65 1006.34 1005.04 1003.78 1002.58 1001.48 1000.51 999.73 999.16 998.81 998.72 998.86 999.23 999.81 1000.57 1001.47 1002.48 1003.58 1004.73 1005.92 1007.11 1008.29 1009.45 1010.55 1011.60 1012.58 1013.50 1014.35 1015.14 1015.89 1016.60 1017.29 1017.95 1018.59 1019.20 1019.77
1018.15 1016.69 1015.29 1013.94 1012.65 1011.40 1010.17 1008.95 1007.73 1006.51 1005.30 1004.12 1003.00 1001.98 1001.10 1000.38 999.86 999.54 999.44 999.55 999.86 1000.35 1001.00 1001.78 1002.67 1003.65 1004.69 1005.77 1006.87 1007.98 1009.07 1010.13 1011.15 1012.11 1013.01 1013.86 1014.65 1015.39 1016.08 1016.74 1017.35 1017.92 1018.45
1018.82 1017.46 1016.17 1014.93 1013.74 1012.59 1011.47 1010.34 1009.21 1008.06 1006.91 1005.77 1004.66 1003.62 1002.69 1001.87 1001.22 1000.73 1000.43 1000.31 1000.37 1000.59 1000.97 1001.48 1002.11 1002.85 1003.68 1004.59 1005.55 1006.55 1007.56 1008.58 1009.59 1010.56 1011.49 1012.38 1013.20 1013.97 1014.69 1015.35 1015.95 1016.50 1017.00
1019.49 1018.26 1017.09 1015.97 1014.89 1013.85 1012.82 1011.79 1010.74 1009.68 1008.59 1007.50 1006.43 1005.41 1004.46 1003.60 1002.86 1002.26 1001.81 1001.50 1001.34 1001.31 1001.42 1001.66 1002.01 1002.47 1003.05 1003.72 1004.47 1005.30 1006.18 1007.10 1008.04 1008.98 1009.90 1010.78 1011.62 1012.41 1013.14 1013.81 1014.42 1014.97 1015.45
1020.11 1019.03 1017.99 1017.00 1016.05 1015.12 1014.20 1013.26 1012.30 1011.31 1010.29 1009.27 1008.26 1007.27 1006.34 1005.49 1004.73 1004.06 1003.51 1003.06 1002.72 1002.49 1002.36 1002.33 1002.40 1002.58 1002.87 1003.27 1003.77 1004.38 1005.07 1005.83 1006.65 1007.49 1008.35 1009.19 1010.01 1010.79 1011.52 1012.20 1012.81 1013.37 1013.86
1020.61 1019.70 1018.82 1017.99 1017.17 1016.37 1015.55 1014.70 1013.82 1012.91 1011.97 1011.02 1010.07 1009.14 1008.27 1007.45 1006.70 1006.02 1005.42 1004.89 1004.42 1004.02 1003.69 1003.43 1003.25 1003.16 1003.17 1003.29 1003.53 1003.88 1004.34 1004.89 1005.53 1006.24 1006.98 1007.73 1008.49 1009.23 1009.93 1010.58 1011.19 1011.75 1012.25
1020.98 1020.25 1019.56 1018.89 1018.23 1017.55 1016.84 1016.09 1015.28 1014.44 1013.57 1012.68 1011.80 1010.95 1010.13 1009.37 1008.66 1008.00 1007.39 1006.82 1006.28 1005.78 1005.29 1004.85 1004.46 1004.13 1003.89 1003.75 1003.72 1003.81 1004.03 1004.36 1004.79 1005.30 1005.89 1006.51 1007.15 1007.80 1008.43 1009.04 1009.62 1010.16 1010.65
1021.22 1020.68 1020.18 1019.69 1019.17 1018.62 1018.02 1017.35 1016.62 1015.84 1015.03 1014.20 1013.38 1012.59 1011.85 1011.14 1010.49 1009.88 1009.29 1008.71 1008.14 1007.57 1007.00 1006.43 1005.88 1005.36 1004.91 1004.55 1004.29 1004.14 1004.12 1004.22 1004.43 1004.74 1005.13 1005.58 1006.08 1006.59 1007.12 1007.64 1008.14 1008.63 1009.10
1021.34 1021.00 1020.68 1020.35 1019.98 1019.54 1019.03 1018.44 1017.78 1017.05 1016.29 1015.51 1014.74 1014.02 1013.33 1012.69 1012.09 1011.53 1010.98 1010.43 1009.86 1009.26 1008.64 1007.99 1007.34 1006.70 1006.11 1005.58 1005.13 1004.79 1004.56 1004.45 1004.45 1004.55 1004.74 1005.00 1005.31 1005.66 1006.04 1006.43 1006.82 1007.22 1007.62
1021.38 1021.20 1021.04 1020.84 1020.59 1020.26 1019.83 1019.30 1018.69 1018.01 1017.29 1016.56 1015.85 1015.17 1014.54 1013.96 1013.41 1012.90 1012.40 1011.88 1011.33 1010.73 1010.09 1009.42 1008.72 1008.01 1007.32 1006.68 1006.11 1005.63 1005.24 1004.96 1004.77 1004.68 1004.68 1004.74 1004.86 1005.02 1005.23 1005.46 1005.71 1005.98 1006.27
1021.32 1021.28 1021.23 1021.14 1020.98 1020.72 1020.35 1019.88 1019.31 1018.68 1018.01 1017.33 1016.67 1016.04 1015.47 1014.94 1014.46 1013.99 1013.52 1013.04 1012.52 1011.94 1011.31 1010.63 1009.92 1009.19 1008.46 1007.77 1007.12 1006.55 1006.06 1005.65 1005.32 1005.08 1004.90 1004.79 1004.72 1004.70 1004.71 1004.76 1004.85 1004.96 1005.10
1021.16 1021.21 1021.23 1021.21 1021.10 1020.89 1020.57 1020.14 1019.63 1019.05 1018.43 1017.82 1017.22 1016.66 1016.14 1015.67 1015.24 1014.82 1014.39 1013.94 1013.44 1012.88 1012.27 1011.61 1010.90 1010.18 1009.45 1008.74 1008.08 1007.47 1006.92 1006.44 1006.02 1005.67 1005.36 1005.10 1004.87 1004.68 1004.52 1004.39 1004.30 1004.24 1004.23
Thickness
5448 5448 5448 5448 5449 5449 5449 5450 5450 5451 5452 5453 5454 5455 5455 5454 5455 5455 5455 5455 5455 5456 5455 5456 5457 5458 5459 5459 5458 5459 5460 5461 5464 5468 5467 5468 5468 5469 5471 5472 5474 5476 5479
5434 5435 5436 5436 5436 5437 5437 5437 5438 5439 5440 5442 5443 5443 5443 5444 5444 5444 5444 5444 5444 5444 5444 5445 5446 5446 5447 5447 5447 5448 5448 5449 5451 5453 5454 5454 5455 5456 5458 5460 5462 5464 5466
5421 5422 5423 5424 5424 5425 5425 5425 5426 5426 5428 5429 5431 5431 5432 5433 5433 5433 5433 5433 5433 5433 5433 5434 5435 5435 5435 5436 5437 5437 5437 5438 5438 5440 5442 5441 5442 5442 5444 5446 5448 5450 5453
5408 5409 5410 5411 5411 5412 5412 5412 5413 5414 5415 5417 5419 5419 5420 5421 5422 5422 5422 5421 5421 5422 5422 5423 5424 5424 5425 5425 5426 5426 5426 5425 5425 5426 5427 5428 5428 5428 5430 5432 5435 5437 5440
5394 5395 5396 5396 5397 5398 5398 5399 5400 5401 5403 5405 5406 5406 5407 5408 5409 5410 5410 5410 5410 5410 5411 5412 5412 5413 5414 5414 5415 5415 5415 5414 5414 5414 5415 5415 5415 5415 5418 5420 5422 5424 5427
5381 5382 5382 5383 5383 5383 5384 5385 5386 5387 5389 5391 5392 5393 5394 5395 5397 5398 5399 5399 5398 5398 5399 5400 5400 5401 5402 5403 5404 5405 5405 5405 5404 5403 5404 5404 5406 5405 5406 5406 5408 5409 5413
5368 5368 5368 5369 5369 5369 5371 5372 5373 5374 5375 5377 5378 5379 5380 5382 5384 5386 5387 5387 5386 5386 5387 5387 5388 5389 5389 5389 5391 5392 5392 5393 5394 5394 5394 5394 5394 5394 5393 5393 5394 5396 5399
5355 5355 5355 5355 5356 5357 5358 5358 5359 5359 5361 5363 5364 5365 5366 5368 5370 5373 5374 5373 5373 5374 5374 5375 5375 5376 5377 5377 5377 5379 5380 5381 5381 5382 5384 5384 5383 5382 5381 5382 5381 5382 5384
5342 5342 5342 5342 5343 5343 5343 5344 5344 5345 5346 5348 5349 5350 5352 5354 5356 5358 5359 5359 5360 5360 5361 5362 5363 5363 5365 5365 5365 5366 5367 5368 5369 5369 5370 5370 5370 5369 5368 5367 5366 5367 5370
5330 5329 5329 5329 5329 5329 5329 5329 5330 5331 5332 5333 5335 5336 5337 5340 5342 5344 5345 5346 5347 5348 5348 5349 5350 5351 5353 5353 5352 5353 5354 5355 5355 5356 5356 5357 5356 5355 5354 5354 5353 5353 5354
5317 5317 5316 5316 5316 5316 5315 5316 5317 5318 5319 5320 5321 5322 5323 5326 5328 5330 5331 5332 5334 5334 5335 5336 5337 5338 5339 5340 5340 5341 5342 5343 5342 5342 5342 5342 5342 5341 5340 5340 5340 5340 5341
5305 5304 5304 5303 5303 5303 5303 5303 5304 5305 5306 5307 5307 5309 5310 5312 5314 5316 5319 5320 5321 5321 5322 5323 5324 5325 5326 5326 5327 5328 5329 5329 5328 5328 5328 5328 5328 5327 5327 5327 5327 5327 5328
5292 5291 5291 5291 5290 5290 5290 5290 5291 5291 5292 5293 5295 5296 5298 5300 5301 5304 5306 5307 5307 5308 5309 5310 5310 5311 5311 5311 5312 5313 5313 5314 5315 5314 5314 5314 5314 5314 5314 5314 5314 5314 5314
5279 5278 5278 5277 5277 5277 5277 5277 5278 5278 5278 5280 5281 5282 5284 5286 5288 5290 5291 5292 5293 5293 5294 5294 5295 5295 5295 5296 5296 5297 5298 5299 5300 5301 5300 5300 5300 5300 5299 5300 5300 5301 5301
5266 5266 5265 5264 5263 5263 5263 5263 5264 5264 5265 5266 5268 5269 5271 5273 5275 5277 5278 5279 5280 5280 5280 5279 5278 5279 5279 5280 5280 5281 5282 5283 5284 5284 5285 5285 5285 5285 5285 5285 5285 5286 5286
5254 5253 5252 5252 5251 5250 5250 5251 5251 5252 5254 5255 5256 5257 5258 5261 5263 5265 5266 5268 5268 5268 5266 5265 5265 5265 5265 5265 5265 5266 5266 5267 5268 5269 5269 5269 5270 5270 5270 5270 5270 5270 5271
5242 5240 5240 5239 5238 5238 5237 5237 5237 5239 5240 5241 5243 5244 5245 5248 5250 5252 5253 5253 5253 5253 5250 5251 5251 5251 5251 5251 5251 5251 5251 5252 5253 5254 5254 5254 5255 5255 5256 5255 5255 5255 5256
5230 5230 5229 5227 5226 5225 5224 5223 5223 5223 5224 5225 5227 5229 5231 5233 5235 5236 5238 5238 5236 5235 5234 5235 5235 5236 5236 5237 5237 5237 5237 5237 5238 5239 5239 5239 5239 5240 5241 5241 5241 5241 5241
5219 5218 5217 5216 5214 5213 5212 5211 5210 5210 5210 5210 5212 5214 5216 5218 5219 5220 5221 5219 5219 5219 5219 5219 5220 5221 5222 5222 5222 5222 5222 5222 5223 5223 5223 5224 5224 5225 5225 5226 5226 5228 5227
5208 5209 5208 5205 5203 5201 5200 5200 5199 5198 5197 5197 5198 5199 5200 5201 5202 5203 5204 5203 5203 5204 5204 5205 5206 5207 5207 5208 5208 5208 5208 5208 5208 5209 5209 5209 5209 5210 5211 5211 5212 5213 5214
5198 5197 5197 5194 5192 5190 5189 5188 5187 5186 5185 5185 5185 5187 5189 5188 5188 5189 5189 5189 5190 5190 5191 5192 5192 5193 5193 5194 5195 5195 5195 5195 5195 5195 5196 5196 5196 5196 5197 5198 5199 5199 5200
5188 5186 5184 5182 5181 5180 5179 5178 5177 5175 5175 5174 5174 5175 5178 5176 5176 5177 5177 5178 5178 5179 5179 5179 5180 5180 5181 5181 5182 5182 5183 5184 5184 5183 5183 5183 5183 5184 5184 5185 5186 5186 5187
5178 5176 5175 5173 5172 5171 5169 5167 5166 5165 5164 5163 5164 5164 5164 5164 5165 5165 5166 5167 5167 5168 5169 5169 5169 5170 5170 5171 5171 5171 5172 5173 5173 5173 5173 5173 5172 5172 5173 5174 5174 5175 5176
5169 5167 5165 5164 5162 5161 5159 5158 5156 5156 5155 5154 5154 5154 5154 5155 5155 5156 5156 5157 5157 5158 5159 5159 5160 5160 5161 5161 5161 5162 5163 5163 5163 5163 5163 5163 5163 5163 5163 5163 5164 5165 5166
5161 5158 5157 5155 5153 5151 5150 5148 5147 5146 5146 5146 5146 5146 5146 5146 5146 5147 5147 5148 5148 5149 5150 5150 5151 5152 5152 5152 5153 5153 5154 5154 5154 5154 5154 5154 5154 5154 5154 5154 5155 5155 5156
5152 5150 5147 5146 5144 5142 5141 5139 5138 5138 5137 5137 5138 5137 5138 5138 5138 5139 5139 5139 5140 5141 5142 5143 5143 5144 5144 5145 5145 5146 5146 5146 5147 5147 5147 5147 5146 5146 5146 5146 5146 5147 5147